Regional Weather Roundup
Issued by NWS Newport/Morehead, NC

Current Version | Previous Version | Text Only | Print | Product List | Glossary Off
Versions: 1 2 3 4 5 6 7 8 9 10 11 12 13 14 15 16 17 18 19 20 21 22 23 24 25 26 27 28 29 30 31 32 33 34 35 36 37 38 39 40 41 42 43 44 45 46 47 48 49 50
000 ASUS42 KMHX 140113 RWRMHX WEATHER ROUNDUP FOR EASTERN NORTH CAROLINA NATIONAL WEATHER SERVICE NEWPORT/MOREHEAD CITY NC 800 PM EST SAT FEB 13 2016 NOTE: "FAIR" INDICATES FEW OR NO CLOUDS BELOW 12,000 FEET WITH NO SIGNIFICANT WEATHER AND/OR OBSTRUCTIONS TO VISIBILITY NCZ015>017-031-032-045>047-102-103-140200- NORTH COAST CITY SKY/WX TMP DP RH WIND PRES REMARKS EDENTON CLEAR 30 4 32 NW9 30.38R ELIZABETH CITY CLEAR 26 4 38 NW9 30.36R KITTY HAWK CLEAR 28 3 34 NW6 30.33R MANTEO PTCLDY 29 4 34 N12G17 30.35R WCI 19 $$ NCZ045>047-081-094-103-104-140200- CENTRAL COAST CITY SKY/WX TMP DP RH WIND PRES REMARKS FRISCO CLEAR 31 4 31 NW16G28 30.34R WCI 20 SWANQUARTER N/A 28 N/A N/A NW7G15 30.33S $$ NCZ095-097-098-100-101-140200- SOUTHERN COAST CITY SKY/WX TMP DP RH WIND PRES REMARKS BEAUFORT CLEAR 31 9 39 N14 30.37R CEDAR ISLAND N/A 32 N/A N/A NW22G31 30.41R WCI 19 JACKSONVILLE CLEAR 30 6 36 N7 30.38R PINEY ISLAND CLEAR N/A N/A N/A NW17G25 30.36R WILMINGTON CLEAR 32 8 36 N8 30.38R $$ NCZ011>013-027>030-043-044-078>080-089-090>093-098-140200- COASTAL PLAIN CITY SKY/WX TMP DP RH WIND PRES REMARKS AHOSKIE CLEAR 27 -2 29 CALM 30.39R CLINTON CLEAR 31 8 37 N5 30.39R ELIZABETHTOWN CLEAR 31 6 36 CALM 30.37R GOLDSBORO CLEAR 30 0 27 NW5 30.37R GREENVILLE CLEAR 30 3 31 NW5 30.38S HAVELOCK CLEAR 30 6 36 NW10 30.38R KENANSVILLE CLEAR 29 8 40 CALM 30.39R KINSTON CLEAR 28 3 34 NW8 30.39R NEW BERN CLEAR 28 9 44 NW3 30.39R RICHLANDS CLEAR 28 5 37 CALM 30.38R ROCKY MOUNT CLEAR 27 0 31 NW13 30.39R WCI 16 WASHINGTON CLEAR 27 4 37 NW5 30.38R WHITEVILLE CLEAR 33 8 35 NE3 30.37R $$ AMZ130-135-150-152-154-156-158-170-250-252-270-ANZ085-086-088-633-658-670-140200- MARINE OBSERVATIONS STATION/POSITION TIME TEMP WIND PRES WAVE SWELL AIR SEA DIR/SP/G HT/PER HT/PER (UTC) (F) (DEG/KT/KT) (MB) (FT/S) (FT/S) CHESAPEAKE LIGHT 0000 27 350/ 24/ 26 1027.3 64 E VA BEACH 0050 30 49 320/ 25/ 31 1026.1 9/ 7 2/11 DUCK 0000 30 1026.1 2 E DUCK 0011 41 N/A 4/ 6 OREGON INLET 0000 28 39 1026.6 13E OREGON INLT 0000 45 N/A 6/ 6 HATTERAS CG 0000 33 43 1026.2 DIAMOND BUOY 0050 36 72 330/ 21/ 29 1026.8 5/ 4 2/10 CAPE LOOKOUT NOT AVBL BEAUFORT LAB 0000 32 42 1026.6 30 SE NEW RVR IN 0008 38 60 1026.6 30 SE NEW RVR IN 0025 60 N/A 5/ 5 27 SE WRIGHTSVLE 0008 39 60 360/ 19/ 27 1025.7 5 SE WRIGHTSVLE 0008 38 50 360/ 16/ 21 1027.9 225 S CAPE HAT 0050 50 68 330/ 21/ 25 N/A 9/ 8 3/13 41 SE CHARLESTON 0050 46 66 10/ 10/ 14 1026.9 3/ 6 3/ 6 $$

USA.gov is the U.S. government's official web portal to all federal, state and local government web resources and services.